Location: *
(51.5000°N, 0.1100°W)
Time: 05:41:27
(UTC+00:00)

IDEFIX/ARIANE 42P - Pass Details

Date: 06 August 2024
Orbit: 782 x 799 km, 98.5° (Epoch: 08 September)

Event Time Altitude Azimuth Distance (km) Brightness Sun altitude
Rises 02:56:23 0° 9° (N) 3,284 6.8 -12.5°
Reaches altitude 10° 02:58:53 10° 1° (N) 2,351 5.8 -12.2°
Maximum altitude 03:03:30 34° 298° (WNW) 1,268 3.5 -11.8°
Enters shadow 03:07:17 14° 239° (WSW) 2,051 4.1 -11.4°
